Location: Il Ritiro
(43.4167°N, 13.1333°E)
Time: 01:42:27
(UTC+00:00)

Cosmos 1452 Rocket - Pass Details

Date: 05 July 2020
Orbit: 768 x 774 km, 74.1° (Epoch: 11 August)

Event Time Altitude Azimuth Distance (km) Brightness Sun altitude
Rises 23:26:56 0° 336° (NNW) 3,253 7.8 -23.8°
Reaches altitude 10° 23:29:20 10° 334° (NNW) 2,321 6.8 -23.8°
Maximum altitude 23:34:32 63° 254° (WSW) 856 3.5 -23.7°
Enters shadow 23:35:04 59° 222° (SW) 884 3.5 -23.7°
